www.pogodaiklimat.ru
ПОГОДА в Каса-Гранде
Время
и дата
18:56 07.08
19:56 07.08
20:56 07.08
21:56 07.08
22:56 07.08
23:56 07.08
00:56 08.08
01:56 08.08
02:56 08.08
03:56 08.08
04:56 08.08
05:56 08.08
06:56 08.08
07:56 08.08
08:56 08.08
09:56 08.08
10:56 08.08
11:56 08.08
12:56 08.08
13:56 08.08
14:56 08.08
15:56 08.08
16:56 08.08
17:56 08.08
18:56 08.08
19:56 08.08
20:56 08.08
21:56 08.08
22:56 08.08
23:19 08.08
23:34 08.08
23:56 08.08
00:49 09.08
00:56 09.08
01:09 09.08
01:56 09.08
02:27 09.08
02:56 09.08
03:56 09.08
04:56 09.08
05:56 09.08
06:56 09.08
07:56 09.08
08:56 09.08
09:56 09.08
10:56 09.08
11:56 09.08
12:56 09.08
Ветер
(напр.,м/с)
Видим. Явления Облачность Т
(С)
Тd
(С)
f
(%)
Тe
(С)
Тes
(С)
Комфортность P
(гПа)
Po
(гПа)
Тmin
(С)
Tmax
(С)
R
(мм)
R24
(мм)
S
(см)
СЗ 3 16 км ясно +37.2 +16.1 29 +39 +40 очень
душно
1010.1 959.3
СЗ 2 16 км ясно +36.1 +16.7 32 +39 +39 очень
душно
1010.7 960.0
С 2 16 км 2/0 3000 м
[Ac]
+35.6 +17.2 34 +39 +39 очень
душно
1011.9 961.3
С 3 16 км ясно +33.9 +16.7 36 +37 +37 очень
душно
1012.3 961.6
С 1 16 км ясно +32.8 +16.7 38 +36 +36 очень
душно
1012.9 961.9 +32.8 +38.9
В 1 16 км 5/0 3600 м
[Ac]
+32.2 +16.1 38 +35 +35 очень
душно
1013.1 962.2
В 1 16 км 2/0 3600 м
[Ac]
+31.7 +16.1 39 +35 +35 очень
душно
1012.7 961.9
ЮВ 2 16 км ясно +30.0 +20.0 55 +36 +36 очень
душно
1012.6 961.9
Ю 2 16 км ясно +28.9 +17.2 49 +33 +33 очень
душно
1012.8 962.2
Ю 2 16 км ясно +28.9 +16.7 48 +33 +33 очень
душно
1012.9 962.2
Ю 1 16 км ясно +28.3 +17.2 51 +32 +32 душно 1013.4 962.6 +28.3 +32.8
ЮВ 1 16 км ясно +28.3 +17.2 51 +32 +32 душно 1014.0 963.2
ЮВ 2 16 км ясно +27.8 +17.2 52 +32 +32 душно 1014.6 963.5
В 1 16 км ясно +28.9 +17.8 51 +33 +35 очень
душно
1014.9 963.8
ЮВ 1 16 км ясно +30.6 +17.8 46 +35 +39 очень
душно
1015.0 964.2
нст 1 16 км ясно +32.2 +17.8 42 +36 +46 очень
душно
1014.5 963.5
СЗ 1 16 км ясно +33.9 +17.8 38 +38 +52 опасность
солнечного
удара
1014.2 963.5 +27.8 +33.9
нст 1 16 км ясно +34.4 +17.8 37 +38 +53 опасность
солнечного
удара
1013.5 962.9
нст 1 16 км ясно +35.6 +17.8 35 +39 +59 опасность
солнечного
удара
1012.8 962.2
16 км ясно +36.1 +17.8 34 +40 +67 опасность
солнечного
удара
1011.8 961.3
З 2 16 км ясно +37.2 +17.8 32 +41 +52 опасность
перегрева
1010.2 959.7
нст 1 16 км ясно +37.8 +16.1 28 +40 +51 опасность
солнечного
удара
1009.7 959.0
нст 1 16 км ясно +37.2 +16.1 29 +39 +47 очень
душно
1009.6 959.0 +33.3 +37.8
З 2 16 км ясно +36.1 +18.9 36 +40 +43 очень
душно
1009.1 958.4
З 2 16 км ясно +34.4 +17.8 37 +38 +39 очень
душно
1010.0 959.3
З 2 16 км ясно +33.9 +18.3 40 +38 +38 очень
душно
1010.5 959.7
ЮЗ 1 16 км ясно +32.8 +18.9 44 +38 +38 очень
душно
1011.3 960.6
З 1 16 км ясно +32.8 +19.4 45 +38 +38 очень
душно
1011.7 960.9
В 1 16 км 8/0 3000 м
[Ac]
+32.8 +19.4 45 +38 +38 очень
душно
1011.9 961.3 +32.2 +37.8
ЮЗ 1 16 км гроза 2/0 3300 м
[Ac]
+33.0 +19.0 44 +38 +38 очень
душно
961.3
ЮЗ 2 16 км 5/0 2850 м
[Ac]
+32.0 +19.0 46 +37 +37 очень
душно
961.6
16 км 2/0 3000 м
[Ac]
+31.7 +19.4 48 +37 +37 очень
душно
1012.2 961.6
В 4
{6}
16 км гроза, слабый дождь 10/10 1500 м +25.0 +20.0 74 +31 +31 очень
душно
963.2
В 3
{6}
16 км слабый дождь 10/8 1800 м
[Ac]
+24.4 +20.6 79 +30 +30 очень
душно
1014.6 963.5
В 3
{5}
16 км гроза, слабый дождь 10/0 2100 м
[Ac]
+24.0 +21.0 83
В 4 16 км гроза со слабым дождем 10/0 2100 м
[Ac]
+23.9 +20.6 82 1014.7
СЗ 2 16 км гроза, слабый дождь 10/0 2100 м
[Ac]
+23.0 +21.0 89 +31 +31 очень
душно
963.5
С 1 16 км слабый дождь 10/0 2700 м
[Ac]
+23.9 +20.6 82 +30 +30 очень
душно
1014.0 962.9
ЮВ 2 16 км дождь 10/0 3000 м
[Ac]
+23.9 +21.7 88 +31 +31 очень
душно
1013.6 962.6
ЮВ 1 16 км слабый дождь 10/0 2100 м
[Ac]
+22.8 +21.1 90 +30 +30 очень
душно
1014.0 962.9 +22.8 +32.8
штиль 0 16 км ясно +23.3 +21.1 87 +31 +31 очень
душно
1014.0 962.9
штиль 0 16 км ясно +23.9 +21.1 84 +30 +30 очень
душно
1014.5 963.5
штиль 0 16 км ясно +25.0 +21.1 79 +32 +34 очень
душно
1015.0 963.8 0.3
штиль 0 16 км ясно +26.7 +21.1 71 +34 +40 очень
душно
1015.3 964.2
штиль 0 16 км ясно +27.8 +21.7 69 +36 +48 очень
душно
1015.3 964.2
В 2 16 км ясно +29.4 +20.6 59 +36 +46 очень
душно
1015.1 964.2 +22.8 +29.4
В 1 16 км ясно +31.7 +21.1 53 +39 +54 опасность
солнечного
удара
1014.3 963.5
штиль 0 16 км ясно +32.8 +19.4 45 +38 +65 опасность
солнечного
удара
1013.4 962.2
Местоположение метеостанции Casa Grande Municipal Airport: широта 32.9500 долгота -111.7667 высота над уровнем моря 446 м.
В архиве по умолчанию представлена погода в Каса-Гранде за последние 1-2 суток. Обновление информации о фактической погоде в базе происходит ежечасно! Архивные данные за месяц целиком и за предыдущие месяцы Вы можете получить, выбрав интересующий диапазон дат из раскрывающегося списка и нажав кнопку "Ввод!".
Внимание! Архив погоды МЕТАР в базе сайта по станциям, не включенным в климатический монитор, хранится не более 60 дней. Нет смысла пытаться выбрать более раннюю дату.
*Определитесь, кто Вы:
Внимание! Время в таблицах - местное (без учета летнего времени). Для получения всемирного времени необходимо вычесть поправку, которая равна -7 ч.
Смотрите также архив погоды в соседних городах и на ближайших метеорологических станциях:
Партнеры нашего сайта:      
Пояснения к столбцам:
  • Ветер - указаны скорость ветра в м/с - средняя за 10 мин, порывы в срок и между сроками (в фигурных скобках) и направление, откуда дует ветер: С - северный,
  • СВ - северо-восточный, В - восточный, ЮВ - юго-восточный, Ю - южный, ЮЗ - юго-западный, З - западный, СЗ - северо-западный.
  • Видимость - горизонтальная дальность видимости в метрах или километрах. При видимости от 1 до 10 км при отсутствии осадков обычно наблюдается дымка, при ухудшении видимости до 1 км и менее - туман. В сухую погоду видимость может ухудшаться дымом, пылью или мглою.
  • Явления - указаны атмосферные явления, наблюдавшиеся в срок или в последний час перед сроком; фигурными скобками обозначены явления, наблюдавшиеся между сроками (за 1-3 часа до срока); квадратными скобками обозначены град или гололедные отложения с указанием их диаметра в мм.
  • Облачность - указаны через наклонную черту общая и нижняя облачность в баллах и высота нижней границы облаков в метрах; квадратными скобками обозначены формы облаков: Ci - перистые, Cs - перисто-слоистые, Cc - перисто-кучевые, Ac - высококучевые, As - высокослоистые, Sc - слоисто-кучевые, Ns - слоисто-дождевые, Cu - кучевые, Cb - кучево-дождевые. Подробнее классификацию облаков см. в Атласе облаков (PDF).
  • T - Температура воздуха - температура, измеренная на высоте 2 м над землей.
  • Td - Температура точки росы - температура, при понижении до которой содержащийся в воздухе водяной пар достигнет насыщения.
  • f - Относительная влажность воздуха - влажноcть воздуха, измеренная на высоте 2 м над землей.
  • Te - Эффективная температура - температура, которую ощущает одетый по сезону человек в тени. Характеристика душности погоды. При расчете учитывается влияние влажности воздуха и скорости ветра на теплоощущения человека.
  • Tes - Эффективная температура на солнце - температура, которую ощущает человек, с поправкой на солнечный нагрев. Характеристика знойности погоды. Зависит от высоты солнца над горизонтом, облачности и скорости ветра. Ночью, в пасмурную погоду, а также при ветре 12 м/с и более поправка равна нулю.
  • P - Атмосферное давление - приведенное к уровню моря атмосферное давление.
  • Po - Атмосферное давление - измеренное на уровне метеостанции атмосферное давление.
  • Tmin - Минимальная температура - минимум температуры воздуха на высоте 2 м над землей.
  • Tmax - Максимальная температура - максимум температуры воздуха на высоте 2 м над землей.
  • R - Количество осадков - Количество выпавших осадков за период времени, мм. При наведении курсора мыши на число - период времени, за который выпало указанное количество осадков.
  • R24 - Количество осадков - Количество выпавших осадков за 24 часа, мм.
  • S - Снежный покров - Высота снежного покрова, см. При наведении курсора мыши на число - состояние снежного покрова и степень покрытия местности в баллах.